Regional Weather Roundup
Issued by NWS Memphis, TN

Home | Current Version | Previous Version | Text Only | Print | Product List | Glossary On
Versions: 1 2 3 4 5 6 7 8 9 10 11 12 13 14 15 16 17 18 19 20 21 22 23 24 25 26 27 28 29 30 31 32 33 34 35 36 37 38 39 40 41 42 43 44 45 46 47 48 49 50
000
ASUS44 KMEG 272010
RWRMEG
MEMPHIS CWA HOURLY WEATHER ROUNDUP
NATIONAL WEATHER SERVICE MEMPHIS TN
300 PM CDT WED AUG 27 2014

...WEST TENNESSEE...

CITY           SKY/WX    TMP DP  RH WIND       PRES   REMARKS
MEMPHIS INTL   PTSUNNY   93  64  38 SE10G16   30.06S HX  94
NWS MEMPHIS      N/A     92 N/A N/A MISG        N/A
JACKSON        SUNNY     88  69  53 E7        30.06F HX  92
LEXINGTON      MOSUNNY   90  66  45 CALM      30.06F HX  92
SAVANNAH       PTSUNNY   90  66  45 CALM      30.07F HX  92
DYERSBURG      MOSUNNY   90  66  45 SE3       30.06F HX  92
UNION CITY     SUNNY     82  70  65 NE3       30.06F
PARIS          MOSUNNY   90  72  55 SE6       30.06F HX  96
HUNTINGDON     MOSUNNY   87  70  57 E3        30.05F HX  92


...EASTERN ARKANSAS...

CITY           SKY/WX    TMP DP  RH WIND       PRES   REMARKS
JONESBORO      MOSUNNY   93  70  46 E8        30.05F HX  99
WEST MEMPHIS   PTSUNNY   91  69  48 MISG      30.04F HX  96
BATESVILLE     MOSUNNY   95  70  43 E9        30.05F HX 101
NEWPORT        SUNNY     92  70  48 E8        30.06F HX  97
WALNUT RIDGE   SUNNY     91  64  40 N3        30.03F HX  93
BLYTHEVILLE    PTSUNNY   89  74  60 E5        30.05F HX  98
SEARCY         SUNNY     93  70  47 MISG      30.06F HX  98
STUTTGART      MOSUNNY   88  73  62 N6        30.07F HX  96
PINE BLUFF     MOSUNNY   91  70  49 E5        30.05F HX  96
MONTICELLO     MOSUNNY   91  62  37 N6        30.04F HX  91


...NORTH MISSISSIPPI...

CITY           SKY/WX    TMP DP  RH WIND       PRES   REMARKS
TUPELO         MOSUNNY   91  60  35 VRB7      30.05F HX  90
OLIVE BRANCH   PTSUNNY   90  66  45 E8        30.06F HX  92
CLARKSDALE     SUNNY     91  68  46 E7        30.05F HX  95
CORINTH        MOSUNNY   90  63  40 SE8       30.06F HX  90
GRENADA        MOSUNNY   91  61  35 E7        30.04F HX  91
GREENWOOD      MOSUNNY   93  63  36 NE3       30.03F HX  94
COLUMBUS       MOSUNNY   91  59  34 VRB2      30.04F HX  90
STARKVILLE     FAIR      90  57  33 N3        30.04F
GOLDEN TRIANGL MOSUNNY   93  63  36 N13       30.05F HX  94


...SOUTHEAST MISSOURI...

CITY           SKY/WX    TMP DP  RH WIND       PRES   REMARKS
WEST PLAINS    MOSUNNY   94  64  37 VRB6      30.08F HX  95
POPLAR BLUFF   SUNNY     93  69  45 SE5       30.04F HX  98
CAPE GIRARDEAU SUNNY     94  70  45 CALM      30.05F HX 100


...NORTHWEST ALABAMA...

CITY           SKY/WX    TMP DP  RH WIND       PRES   REMARKS
MUSCLE SHOALS  SUNNY     90  62  39 NE6       30.07F HX  90


...MIDDLE TENNESSEE...

CITY           SKY/WX    TMP DP  RH WIND       PRES   REMARKS
NASHVILLE      PTSUNNY   90  69  50 E8        30.07F HX  94
CLARKSVILLE    PTSUNNY   81  72  74 S3        30.06F
DICKSON        MOSUNNY   88  72  58 E3        30.07F HX  94
COLUMBIA       SUNNY     90  72  55 CALM      30.05F HX  96
LEWISBURG      SUNNY     90  70  51 W5        30.06F HX  95


...WESTERN KENTUCKY...

CITY           SKY/WX    TMP DP  RH WIND       PRES   REMARKS
PADUCAH        SUNNY     95  70  44 CALM      30.04F HX 101
FORT CAMPBELL  MOSUNNY   92  71  50 S8        30.05F HAZE    HX  98


...CENTRAL ARKANSAS...

CITY           SKY/WX    TMP DP  RH WIND       PRES   REMARKS
LITTLE ROCK    MOSUNNY   91  67  44 E5        30.05F HX  94


SKY/WX REPORTED AS FAIR MEANS FEW OR NO CLOUDS BELOW
12 THOUSAND FEET.



USA.gov is the U.S. government's official web portal to all federal, state and local government web resources and services.